Bartlesville, OK

9:36 PM CDT on October 20, 2017 (GMT -0500)
Bartlesville Municipal

Weather History for KBVO - January, 2013

Change the Weather History Date:

Thursday, January 3, 2013

  Actual Average Record
Temperature  
Mean Temperature 30 °F -  
Max Temperature 43 °F 45 °F 48 °F (2017)
Min Temperature 16 °F 25 °F 21 °F (2016)
Degree Days  
Heating Degree Days 36    
Moisture  
Dew Point 22 °F    
Average Humidity 79    
Maximum Humidity 96    
Minimum Humidity 45    
Precipitation  
Precipitation 0.00 in - - ()
Sea Level Pressure  
Sea Level Pressure 30.43 in    
Wind  
Wind Speed 0 mph (WNW)    
Max Wind Speed 6 mph    
Max Gust Speed -    
Visibility 9 miles    
Events      
Averages and records for this station are not official NWS values.
T = Trace of Precipitation, MM = Missing Value Source: NWS Daily Summary

Daily Weather History Graph

Daily Weather History Graph

Search for Another Location

Airport or City:

Trip Planner

Search our weather history database for the weather conditions in past years. The results will help you decide how hot, cold, wet, or windy it might be!

Date:

Astronomy

Jan. 03, 2013 Rise Set
Actual Time 7:37 AM CST 5:20 PM CST
Civil Twilight 7:08 AM CST 5:49 PM CST
Nautical Twilight 6:36 AM CST 6:21 PM CST
Astronomical Twilight 6:04 AM CST 6:53 PM CST
Moon 11:46 PM CST (1/3) 10:59 AM CST (1/3)
Length of Visible Light 10h 41m
Length of Day
9h 43m
Waning Gibbous, 65% of the Moon is Illuminated
Jan 3
Waning Gibbous
Jan 4
Last Quarter
Jan 11
New
Jan 18
First Quarter
Jan 26
Full

Hourly Weather History & Observations

Time (CST) Temp. Windchill Dew Point Humidity Pressure Visibility Wind Dir Wind Speed Gust Speed Precip Events Conditions
12:53 AM 26.1 °F - 23.0 °F 88% 30.31 in 10.0 mi Calm Calm - N/A   Clear
1:53 AM 23.0 °F - 21.9 °F 96% 30.33 in 10.0 mi Calm Calm - N/A   Clear
3:53 AM 19.0 °F - 18.0 °F 96% 30.38 in 7.0 mi Calm Calm - N/A   Clear
4:53 AM 17.1 °F - 16.0 °F 96% 30.39 in 7.0 mi Calm Calm - N/A   Clear
5:53 AM 17.1 °F - 15.1 °F 92% 30.40 in 6.0 mi Calm Calm - N/A   Clear
6:53 AM 16.0 °F - 14.0 °F 92% 30.42 in 9.0 mi Calm Calm - N/A   Clear
7:53 AM 16.0 °F - 14.0 °F 92% 30.45 in 9.0 mi Calm Calm - N/A   Clear
8:53 AM 25.0 °F - 23.0 °F 92% 30.46 in 9.0 mi Calm Calm - N/A   Clear
9:53 AM 34.0 °F - 28.0 °F 79% 30.48 in 10.0 mi Calm Calm - N/A   Clear
10:53 AM 37.9 °F - 28.0 °F 68% 30.48 in 10.0 mi Calm Calm - N/A   Clear
11:53 AM 39.9 °F - 26.1 °F 58% 30.46 in 10.0 mi Calm Calm - N/A   Clear
12:53 PM 43.0 °F - 25.0 °F 49% 30.42 in 10.0 mi Calm Calm - N/A   Clear
1:53 PM 43.0 °F 40.3 °F 23.0 °F 45% 30.40 in 10.0 mi West 4.6 mph - N/A   Mostly Cloudy
2:53 PM 43.0 °F - 25.0 °F 49% 30.41 in 10.0 mi Calm Calm - N/A   Overcast
3:53 PM 39.9 °F 35.8 °F 27.0 °F 60% 30.43 in 10.0 mi WNW 5.8 mph - N/A   Overcast
4:53 PM 39.0 °F - 26.1 °F 60% 30.44 in 10.0 mi Calm Calm - N/A   Mostly Cloudy
5:53 PM 33.1 °F 30.0 °F 25.0 °F 72% 30.46 in 10.0 mi NNW 3.5 mph - N/A   Clear
6:53 PM 28.9 °F - 23.0 °F 78% 30.48 in 10.0 mi Calm Calm - N/A   Clear
7:53 PM 23.0 °F - 21.0 °F 92% 30.48 in 10.0 mi Calm Calm - N/A   Clear
8:53 PM 19.9 °F - 18.0 °F 92% 30.48 in 10.0 mi Calm Calm - N/A   Clear
9:53 PM 18.0 °F - 17.1 °F 96% 30.47 in 10.0 mi Calm Calm - N/A   Clear
10:53 PM 18.0 °F - 16.0 °F 92% 30.48 in 10.0 mi Calm Calm - N/A   Clear